一网星座-0192星 (ONEWEB-0192 )

导读

ONEWEB-0192是英国OneWeb星座的低轨互联网卫星,于2021年4月25日发射入轨,归属重组后英国政府持股的OneWeb公司。作为OneWeb一期组网卫星,单星重约147.5kg,设计寿命5年,搭载Ku/Ka波段天线,具备约7.5Gbps通信容量,运行在1200公里近地轨道,为全球提供低延迟宽频互联网接入,是OneWeb实现全球覆盖星座组网的重要组成部分。卫星寿命末期将主动离轨,符合空间碎片减缓要求。

Basic Information
目录编号:
48222
目录名称:
ONEWEB-0192
国际标识:
2021-031N
轨道中心:
EARTH
卫星名称:
一网星座-0192星
卫星全名:
一网星座-0192星 (ONEWEB-0192 )
卫星状态:
在轨 (已飞行1876 天)
发射日期:
2021-04-25 UTC
国别 :
英国 (GB)
星等 :
--
Orbit Information
数据来源 国际轨道数据 AOE轨道数据
星历时间 2026-06-14T05:28:32+0800
14小时前
查看轨道信息
2026-06-11T06:00:00+0800
3天前
查看轨道信息
半长轴 7583.933km 7583.92km
偏心率 0.0001846 0.0001619
轨道倾角 87.896° 87.895°
近地点辐角 102.790° 96.055°
升交点赤经 290.360° 290.955°
平近点角 257.343° 218.926°
近地点 1204.396km 1204.555km
远地点 1207.196km 1207.011km
周期 109.547分钟 109.547分钟
每日圈数 13.145015 13.145049
Detailed Information
平衡模式:
三轴稳定
覆盖范围:
全球
运营商:
一网卫星公司
运营商所在国:
英国
制造商(研发单位):
一网卫星公司
制造商所在国:
英国
使用方式:
暂无
Satellite Introduction
OneWeb卫星网络由648颗重约125公斤的微型卫星组成,运行在1200公里的轨道上。 每颗卫星都能够提供至少每秒8千兆位的吞吐量,以使用其高吞吐量的Ku频段有效载荷为家庭和移动平台提供互联网接入。该卫星仍在工作。
2D Orbit Map
3D Orbit Map
Orbit Altitude Analysis Chart
Orbit Inclination Analysis Chart
Orbit Comprehensive Analysis Chart
View Comprehensive Chart